Lapse_Rate
4.3 4.3 4.4 4.2 3.9 3.4 3.2 3.2 3.3 4.5 4.2 3.7 4.0 5.2 5.4 5.3 5.3 5.2 6.1 7.4 7.4 7.4 7.0 6.5 6.8 7.4 7.1 6.6 7.2 6.2 6.5 6.5 6.5 6.5 6.5 6.2 6.5 6.2 6.1 5.3 4.7 5.3 4.8 4.4 5.1
4.7 4.3 4.2 4.4 4.4 3.8 3.4 3.0 3.1 3.5 4.7 4.7 4.8 5.0 5.4 5.2 5.1 6.3 6.8 7.2 7.4 7.3 6.2 5.8 6.5 6.5 5.5 6.3 5.6 6.3 6.5 6.5 6.5 6.5 6.5 6.4 6.2 5.8 6.0 5.8 5.8 5.1 5.7 5.7 5.7
6.8 5.9 4.5 4.1 4.1 4.0 3.7 3.4 3.1 3.3 4.2 5.4 5.6 5.5 5.2 5.2 5.2 6.1 7.1 7.0 7.2 7.2 6.4 6.2 7.3 6.6 6.0 5.6 5.7 5.9 6.5 6.5 6.5 6.1 5.9 6.5 6.4 6.3 6.1 6.5 5.1 5.1 5.2 5.7 5.6
7.3 5.8 5.4 4.9 4.2 3.8 3.5 3.7 3.7 3.6 3.7 5.2 6.0 5.7 5.2 5.0 6.5 5.8 6.8 7.1 7.3 7.0 6.3 7.2 6.8 6.2 6.4 6.5 5.7 6.5 6.1 6.4 6.3 5.9 6.1 6.5 6.3 6.4 5.9 6.2 4.3 3.7 4.4 5.0 5.1
5.3 6.9 6.0 5.0 4.5 4.2 3.7 3.4 3.7 4.1 4.1 4.5 6.1 6.1 6.0 6.3 6.5 6.4 7.1 7.1 7.1 7.0 6.8 6.9 6.3 6.0 6.5 6.4 6.2 6.5 6.5 6.3 5.6 5.7 6.3 6.4 6.4 6.4 6.1 6.0 3.5 4.7 5.3 4.7 4.3
5.3 5.6 6.1 5.5 4.7 4.6 4.0 3.6 3.4 3.9 4.7 4.4 5.8 6.2 6.3 6.5 7.4 7.1 7.7 7.6 7.3 7.5 7.2 7.4 6.7 6.3 6.2 6.5 6.4 6.3 6.4 6.3 5.9 5.9 6.5 6.5 6.4 6.2 5.7 4.8 4.3 5.0 4.6 4.2 3.5
5.9 5.8 6.2 4.8 4.7 4.4 4.1 4.0 3.5 3.4 4.6 5.2 5.6 7.2 7.1 5.8 7.4 7.4 7.6 7.3 7.6 7.2 7.3 7.4 6.3 6.4 6.2 6.5 6.3 6.2 6.5 6.5 6.4 6.0 6.5 5.9 6.5 6.5 4.9 4.5 4.6 4.1 4.3 4.2 4.1
6.3 6.4 6.1 5.5 4.4 4.0 4.1 4.0 3.8 3.5 4.4 5.7 6.3 6.5 6.0 7.6 7.9 7.7 6.9 7.3 7.8 7.9 7.4 7.1 6.7 6.6 6.1 6.3 6.4 6.5 6.5 6.5 6.5 6.4 6.2 5.8 6.5 6.5 4.3 3.9 4.1 3.7 3.3 3.6 4.4
6.3 6.2 6.0 5.7 4.9 4.0 3.8 4.2 4.2 3.9 5.0 6.1 5.8 5.9 6.0 7.3 7.6 6.9 6.6 7.2 7.7 7.9 7.8 8.5 7.2 6.1 6.2 6.5 6.5 6.5 6.5 6.5 6.5 6.4 6.5 6.5 6.5 6.5 4.1 4.3 4.3 3.2 2.6 3.4 4.1
6.2 6.2 6.1 5.9 5.3 4.3 3.9 4.3 4.9 4.8 5.7 7.3 7.7 7.0 7.0 6.6 7.1 7.4 7.8 7.3 7.1 6.9 7.1 6.9 5.3 6.5 6.5 6.5 6.5 6.5 6.5 6.5 6.5 6.5 6.5 6.5 6.5 6.5 5.7 4.6 4.0 3.2 2.2 3.0 3.4
6.0 6.1 6.2 6.3 5.9 5.4 3.7 3.4 5.4 5.2 6.4 5.1 5.2 5.6 6.2 6.6 7.4 6.8 6.9 7.3 7.3 6.3 6.5 6.0 6.5 6.5 6.5 6.5 6.5 6.5 6.5 6.5 6.5 6.5 6.5 6.5 6.5 6.5 5.4 4.7 4.3 3.1 2.7 2.4 2.5
6.5 6.0 6.5 6.5 6.2 5.9 4.3 4.6 5.5 5.0 5.8 6.1 6.1 6.9 6.7 6.1 6.7 6.7 6.4 5.9 6.1 6.5 6.5 6.5 6.5 6.5 6.5 6.5 6.5 6.5 6.5 6.5 6.5 6.5 6.5 6.5 6.5 6.5 6.5 6.2 4.2 3.6 2.5 2.4 3.3
7.0 6.3 6.3 6.6 6.2 4.7 4.6 5.9 6.3 6.8 6.0 6.4 5.9 6.3 6.8 6.3 6.2 5.8 6.4 5.7 6.5 6.5 6.5 6.5 6.5 6.5 6.5 6.5 6.5 6.5 6.5 6.5 6.5 6.5 6.5 6.5 6.5 6.5 6.5 5.9 5.1 5.2 3.7 3.0 2.3
7.8 7.2 6.5 5.5 5.7 5.0 6.4 6.1 6.3 5.9 6.5 6.5 6.3 6.4 6.7 6.6 6.4 6.3 6.6 5.9 6.3 6.5 6.5 6.5 6.5 6.5 6.5 6.5 6.5 6.5 6.5 6.5 6.5 6.5 6.5 6.5 6.5 6.5 6.5 6.5 6.5 5.8 3.1 1.3 2.4
7.7 7.6 7.1 5.8 6.0 6.6 5.8 5.9 5.8 6.0 6.5 6.5 6.4 7.1 6.1 6.4 6.0 6.4 6.2 6.6 6.5 6.5 6.5 6.5 6.5 6.5 6.5 6.5 6.5 6.5 6.5 6.5 6.5 6.5 6.5 6.5 6.5 6.5 6.5 6.5 6.5 6.3 4.1 2.8 2.8
7.5 8.0 7.6 6.3 4.6 6.8 6.1 6.1 5.7 6.5 6.5 6.5 6.4 6.5 6.5 6.2 6.5 6.4 6.1 6.3 6.6 6.5 6.5 6.5 6.4 6.5 6.5 6.5 6.5 6.5 6.5 6.5 6.5 6.5 6.5 6.5 6.5 6.5 6.5 6.5 6.5 6.2 4.2 3.1 2.8
7.8 8.0 7.2 6.9 6.9 6.1 6.0 6.2 6.5 6.5 6.5 6.5 6.5 6.5 6.5 6.5 6.5 6.5 6.5 6.5 6.5 6.5 6.5 6.5 6.5 6.5 6.4 6.5 6.5 6.5 6.5 6.5 6.5 6.5 6.5 6.5 6.5 6.5 6.5 6.5 6.5 6.6 4.0 2.9 2.9
7.6 7.9 6.9 7.5 5.7 5.2 5.5 6.5 6.5 6.5 6.5 6.5 6.5 6.5 6.5 6.5 6.5 6.5 6.5 6.5 6.5 6.5 6.5 6.5 6.5 6.5 6.5 6.5 6.5 6.5 6.5 6.5 6.5 6.5 6.5 6.5 6.5 6.5 6.5 6.1 5.1 4.4 3.4 2.7 2.7
7.8 5.7 6.0 5.4 5.5 6.1 6.0 6.5 6.5 6.5 6.5 6.5 6.5 6.5 6.5 6.5 6.5 6.5 6.5 6.5 6.5 6.5 6.5 6.5 6.5 6.5 6.5 6.5 6.5 6.5 6.5 6.5 6.5 6.5 6.5 6.5 6.5 6.5 6.5 6.5 5.9 5.0 4.1 3.1 2.8
6.6 6.2 6.3 4.8 5.8 6.0 6.5 6.5 6.5 6.5 6.5 6.5 6.5 6.5 6.5 6.5 6.5 6.5 6.5 6.5 6.5 6.5 6.5 6.5 6.5 6.5 6.5 6.5 6.5 6.5 6.5 6.5 6.5 6.5 6.5 6.5 6.5 6.5 6.5 6.5 6.5 6.6 4.7 3.1 3.2
6.5 6.8 5.9 4.5 5.4 6.3 6.5 6.5 6.5 6.7 6.5 6.5 6.5 6.5 6.5 6.5 6.5 6.5 6.5 6.5 6.5 6.5 6.5 6.5 6.5 6.5 6.5 6.5 6.5 6.5 6.5 6.5 6.5 6.5 6.5 6.5 6.5 6.5 6.5 6.5 6.5 6.4 4.1 3.0 3.0
6.9 6.5 5.7 5.0 6.5 6.5 6.5 6.5 6.6 6.5 6.6 6.5 6.5 6.5 6.5 6.5 6.5 6.5 6.5 6.5 6.1 6.5 6.5 6.5 6.5 6.5 6.5 6.5 6.5 6.5 6.5 6.5 6.5 6.5 6.5 6.5 6.5 6.5 6.5 6.5 5.7 4.8 3.6 3.0 3.0
5.8 5.9 5.8 5.4 6.5 6.5 6.5 6.5 6.5 6.5 6.5 6.5 6.5 6.5 6.5 6.5 6.5 6.5 6.5 6.4 5.7 6.5 6.5 6.5 6.5 6.5 6.5 6.5 6.5 6.5 6.5 6.5 6.5 6.5 6.5 6.5 6.5 6.5 6.5 6.6 4.9 4.3 3.3 3.1 3.3
5.5 6.5 5.5 4.2 6.3 6.5 6.5 6.5 6.5 6.7 6.5 6.5 6.5 6.5 6.5 6.5 6.5 6.5 6.5 6.5 6.3 6.4 6.7 6.3 6.5 6.5 6.5 6.5 6.5 6.5 6.5 6.5 6.5 6.5 6.5 6.5 6.5 6.5 6.5 6.5 6.3 4.9 3.6 3.0 3.9
5.3 6.5 6.7 6.5 6.5 6.5 6.5 6.5 6.5 6.5 6.5 6.6 6.5 6.5 6.5 6.5 6.5 6.5 6.5 6.5 6.4 6.6 6.5 6.5 6.5 6.5 6.5 6.5 6.5 6.5 6.5 6.5 6.5 6.5 6.5 6.5 6.5 6.5 6.5 6.5 5.5 3.5 3.8 4.1 4.3
5.9 6.1 6.5 6.6 6.2 6.5 6.5 6.5 6.5 6.5 6.5 6.5 6.5 6.5 6.5 6.5 6.5 6.5 6.5 6.5 6.5 6.5 6.5 6.5 6.5 6.5 6.5 6.5 6.5 6.5 6.5 6.5 6.5 6.5 6.5 6.5 6.5 6.5 5.4 4.2 5.0 4.2 4.5 4.7 5.3
6.6 5.8 6.4 6.5 6.5 6.5 6.5 6.5 6.5 6.5 6.6 6.5 6.5 6.5 6.5 6.5 6.5 6.0 6.1 6.1 6.4 6.5 6.5 6.5 6.5 6.5 6.5 6.5 6.5 6.5 6.5 6.5 6.5 6.5 6.5 6.5 6.5 6.5 6.5 6.5 5.2 4.4 4.7 4.7 5.3
Wind_Speed
13 14 15 16 15 14 13 13 14 15 13 11 9 10 10 9 10 2 4 3 1 3 4 5 4 6 3 2 1 2 1 2 4 3 1 2 3 3 0 6 5 2 5 9 10
12 12 12 16 17 16 15 13 13 14 14 12 11 8 8 7 3 6 1 2 2 1 1 3 4 6 1 3 1 3 3 5 1 3 1 2 4 5 4 5 5 7 6 7 9
14 14 13 13 15 16 17 16 13 12 12 13 12 8 6 6 2 3 4 3 1 2 3 6 4 6 3 3 4 5 4 3 2 4 5 1 2 2 5 1 8 12 11 8 6
14 13 13 14 14 14 16 17 15 12 10 11 12 9 7 2 1 4 7 4 2 5 5 3 2 4 5 5 6 3 7 3 5 3 3 2 3 3 4 3 4 15 15 9 8
12 13 12 12 14 15 15 16 15 14 8 9 12 10 5 2 4 8 8 6 2 2 5 3 3 3 3 5 3 4 3 3 8 6 0 2 1 2 2 3 12 10 9 10 9
10 12 11 11 13 15 16 16 14 13 10 6 10 12 3 4 6 11 4 3 2 3 4 1 2 4 3 1 6 2 2 2 4 6 2 3 3 0 6 7 11 11 9 8 11
12 12 10 9 12 14 17 18 15 11 11 8 5 5 5 9 8 10 5 2 0 1 2 1 3 3 2 2 1 4 4 5 4 6 3 4 5 10 10 9 10 10 8 7 10
14 13 11 9 11 13 17 20 17 11 9 9 7 1 6 2 8 4 6 3 2 1 2 3 3 2 4 1 3 3 2 1 5 9 4 8 7 5 9 10 10 10 8 8 8
14 13 12 11 10 12 15 22 19 9 7 6 4 3 6 2 4 6 6 6 4 3 0 1 1 2 3 4 2 2 3 6 1 8 5 4 5 7 6 9 9 9 9 9 8
14 13 13 11 11 11 15 23 9 2 4 5 7 4 5 5 4 6 3 7 4 6 2 1 1 2 1 3 5 5 4 4 6 8 6 6 9 8 2 7 10 9 9 10 10
17 16 13 11 9 9 6 4 1 1 3 9 6 5 6 3 3 4 4 4 3 4 5 4 3 7 11 10 2 4 2 2 1 1 5 7 8 9 9 8 9 8 9 10 11
16 17 16 10 8 6 2 3 2 4 5 13 19 15 3 7 3 6 8 6 5 6 4 2 7 8 8 11 5 3 1 3 3 2 1 5 11 10 11 11 11 12 9 10 8
17 17 17 11 5 2 5 5 2 1 2 6 12 12 7 8 7 10 13 6 6 7 7 7 4 7 4 4 5 3 4 2 2 2 4 3 8 4 4 4 7 5 5 6 13
17 15 17 7 2 4 4 5 3 3 1 7 7 7 9 7 4 9 12 6 6 11 6 7 6 6 5 4 5 4 1 4 3 4 3 4 4 5 2 6 5 4 3 9 10
18 14 14 15 3 3 5 6 3 3 3 4 4 3 8 8 7 3 4 1 6 6 6 6 8 7 4 3 6 4 4 5 2 2 3 3 2 6 4 3 5 6 6 9 10
17 15 14 6 4 1 8 5 3 3 9 5 4 4 10 6 2 4 4 3 2 3 4 3 2 4 4 5 5 7 4 4 4 3 2 5 5 4 4 7 5 4 7 9 9
19 16 12 4 4 13 5 3 2 5 5 6 5 8 13 8 4 5 7 6 6 6 4 3 2 2 5 6 3 3 5 3 3 2 5 1 3 8 8 7 11 10 9 9 9
21 16 9 7 11 13 3 2 7 7 7 3 6 11 10 9 5 8 9 8 8 3 5 6 2 8 4 5 6 6 7 4 6 4 2 2 5 4 1 3 9 11 12 9 9
12 2 4 4 17 9 6 6 8 7 6 4 8 9 7 10 6 7 9 7 9 10 6 5 2 2 5 3 5 5 4 3 5 3 4 3 4 4 4 7 8 11 11 10 9
2 2 7 14 16 11 8 10 8 10 2 11 10 10 11 13 8 9 12 8 6 14 3 4 5 1 1 2 3 3 4 3 3 3 3 4 3 3 5 6 7 9 10 9 8
2 4 3 19 9 4 9 8 7 11 4 5 9 6 6 8 8 7 9 3 8 5 7 4 5 0 4 5 7 2 2 3 4 3 5 1 5 4 9 9 9 7 8 9 9
3 4 5 10 9 4 7 7 5 3 15 3 5 4 6 11 6 7 7 4 5 8 9 3 6 4 6 0 1 3 6 5 4 5 1 3 5 1 6 9 9 9 10 9 8
3 3 2 3 9 9 1 10 5 6 4 8 6 5 4 5 4 6 5 5 7 5 10 7 1 3 6 5 4 4 5 4 4 3 5 6 5 3 5 6 8 9 8 7 7
3 3 1 1 1 7 8 6 10 8 4 7 7 4 5 2 3 6 3 2 2 4 6 5 4 6 7 6 5 4 4 6 6 4 4 6 4 5 6 6 5 6 7 7 4
3 3 4 4 9 4 2 5 8 6 13 9 1 10 6 3 1 4 4 3 5 5 4 4 4 3 4 6 4 5 5 8 9 6 6 5 11 9 10 10 9 8 5 6 6
3 3 2 2 1 12 8 13 16 15 9 7 9 15 12 3 4 6 7 4 6 2 3 4 1 3 2 5 3 2 5 9 8 4 9 5 7 6 6 6 6 8 8 8 6
3 2 3 3 2 7 6 3 14 9 8 7 13 5 11 15 10 7 5 9 9 9 4 6 5 3 2 5 4 6 14 14 8 6 9 9 8 5 6 8 9 8 7 7 5
Wind_Direction
349 353 351 349 345 344 340 339 336 329 323 314 309 306 316 328 312 226 218 135 122 317 320 297 286 235 264 251 133 69 73 238 256 20 183 187 121 49 222 90 47 51 133 157 154
340 342 349 345 343 339 338 337 336 329 321 308 304 301 310 326 263 269 160 187 178 306 344 235 244 201 199 190 159 119 156 220 55 43 326 126 85 135 116 111 62 82 64 122 132
327 332 332 342 341 338 335 332 331 331 322 310 302 291 303 329 278 194 186 227 236 303 252 262 257 171 206 152 183 194 184 199 59 71 31 105 90 108 112 146 176 164 158 154 152
311 322 325 330 335 336 333 332 324 324 324 312 314 307 304 190 241 188 192 206 285 296 323 290 306 156 192 203 200 186 225 230 146 69 36 27 352 78 136 116 238 160 156 154 159
312 311 321 320 325 330 330 330 322 318 314 317 317 313 313 243 222 197 189 207 240 271 250 251 216 200 198 194 177 162 257 143 126 108 308 330 336 253 282 105 103 121 135 152 149
302 301 307 309 315 321 324 325 320 316 301 305 317 322 277 256 152 157 170 193 237 219 255 247 244 250 235 259 146 100 26 205 158 154 214 187 248 140 243 137 122 129 152 164 135
293 295 290 294 305 313 318 319 316 310 295 291 318 306 277 254 150 147 167 119 89 316 286 107 3 62 337 76 253 85 14 324 218 173 234 110 277 229 218 144 148 148 167 150 156
280 285 287 287 293 305 313 313 307 299 281 281 300 0 258 314 152 158 133 145 256 341 68 38 350 24 69 169 41 113 105 227 264 158 176 99 271 266 211 153 164 163 177 168 160
278 278 278 284 279 297 309 310 301 277 256 268 287 167 260 288 184 206 164 158 145 100 70 266 35 150 61 112 41 251 202 195 249 172 144 144 265 315 160 160 172 181 177 173 163
277 272 264 275 278 296 312 308 261 300 239 253 258 310 191 227 188 159 135 140 149 134 95 177 86 106 84 120 197 190 225 239 180 204 155 187 244 273 269 166 192 196 184 184 182
302 276 260 262 258 288 338 346 311 251 242 196 199 228 141 72 49 167 150 118 127 139 184 222 127 204 206 203 189 127 196 276 66 153 150 223 251 234 231 207 202 197 194 200 196
322 311 268 254 255 288 332 246 251 177 290 238 245 239 162 155 157 213 145 145 165 186 191 79 229 223 207 203 165 125 184 265 59 95 133 248 258 239 221 208 196 200 197 202 149
318 326 309 244 252 318 207 246 195 107 248 254 220 215 205 154 188 203 163 179 175 195 188 169 231 167 136 136 140 187 181 199 135 211 250 3 296 268 184 121 150 157 197 160 152
289 303 319 221 135 211 218 139 164 81 356 261 218 221 163 136 241 171 180 160 211 197 192 212 185 155 151 180 157 171 143 121 78 71 224 122 279 310 156 116 133 183 158 145 137
283 284 294 205 210 194 149 129 226 62 254 240 141 332 134 165 142 162 154 66 185 191 129 209 158 159 158 193 154 180 106 97 87 89 30 297 98 269 123 172 186 190 175 142 145
271 278 284 284 220 193 132 104 359 187 232 202 140 150 152 200 162 101 130 78 183 163 75 138 144 142 141 62 94 134 91 51 52 82 16 237 141 264 195 198 188 162 176 146 141
268 268 272 246 232 160 127 95 196 211 258 190 188 169 181 188 131 138 159 171 173 123 170 102 162 81 123 91 43 110 83 23 12 3 220 214 111 248 231 195 171 168 166 151 143
284 272 263 244 161 147 96 111 223 252 234 170 152 156 176 162 192 174 151 195 246 219 129 146 222 163 190 177 173 171 163 166 185 182 233 49 232 250 20 146 161 157 157 151 155
265 254 244 216 174 156 155 211 192 204 217 203 117 152 211 197 157 160 179 192 210 187 155 131 139 62 68 32 119 182 183 195 102 20 62 223 267 323 17 61 134 148 153 166 169
203 245 235 165 169 164 188 225 205 220 269 330 207 177 189 189 184 174 182 203 205 183 181 166 100 187 94 82 75 132 168 73 356 125 233 277 217 232 201 188 164 162 170 180 175
208 235 243 159 163 231 200 217 195 231 240 159 260 218 200 181 173 186 198 246 179 153 122 112 98 217 88 206 178 122 194 63 116 129 163 194 256 242 196 195 183 177 184 179 189
229 221 165 153 198 191 217 218 224 210 220 236 288 222 237 166 154 177 208 256 142 136 142 140 119 141 203 82 114 186 185 150 129 243 182 138 271 267 159 184 170 187 187 194 194
208 174 139 232 217 201 175 218 239 191 193 180 233 240 325 153 129 163 162 320 142 108 156 187 163 82 358 352 351 209 183 136 118 89 198 139 255 206 165 161 180 181 196 198 191
267 158 177 100 306 197 191 204 210 217 216 181 209 337 329 31 13 151 121 54 63 75 123 112 134 155 177 196 138 184 179 167 129 130 177 220 183 228 210 196 190 190 187 187 176
224 213 146 192 228 219 256 195 196 205 190 202 199 184 246 212 111 103 102 95 49 135 69 106 149 109 104 131 123 156 173 173 191 172 169 228 213 202 194 200 205 211 199 139 147
201 169 125 346 202 185 215 212 203 202 167 195 211 205 208 245 257 180 136 177 182 147 110 355 172 108 138 152 137 214 211 204 223 231 269 267 268 229 201 151 136 158 155 160 154
200 91 97 123 234 163 208 230 206 182 237 240 199 107 208 219 253 287 197 154 160 144 137 132 131 97 196 110 70 304 225 192 198 203 192 203 221 169 161 179 174 177 165 156 132